TJS-12

Last updated on Wed Dec 10 2025 00:02:51 GMT+0000 (Coordinated Universal Time)

1 62374U 24246A 25342.73855963 -.00000230 00000+0 00000+0 0 9996 2 62374 1.1168 288.5164 0001271 308.5055 253.0804 1.00267916 3650
UTC large
Height (km)
Speed (km/s)
/
Latitude / Longitude
Inclination (degrees)
Orbital Period (minutes)
Azimuth
Elevation
Range (km)
Doppler Factor

Next 0 passes for location: London (51.5072 / 0.1276)

Sorry there are no passes over London.